Location: Unspecified
(56.5167°N, 0.0000°E)
Time: 13:07:58
(UTC+02:00)

Cosmos 1674 - Visible Passes

Search period start: 30 May 2017 00:00
Search period end: 09 June 2017 00:00
Orbit: 499 x 522 km, 82.5° (Epoch: 29 May)

Date Brightness Start Highest point End Pass type
(mag) Time Alt. Az. Time Alt. Az. Time Alt. Az.
30 May 3.8 01:58:03 15° SSE 02:00:47 35° E 02:04:19 10° NNE visible
30 May 4.1 03:33:00 10° SW 03:36:27 30° WNW 03:39:54 10° N visible
31 May 4.0 01:41:34 14° SE 01:44:17 29° E 01:47:39 10° NNE visible
31 May 3.8 03:16:28 11° SW 03:19:50 35° WNW 03:23:25 10° N visible
01 Jun 4.3 01:25:04 12° SE 01:27:47 25° E 01:30:57 10° NE visible
01 Jun 3.5 02:59:58 13° SW 03:03:13 42° WNW 03:06:55 10° N visible
02 Jun 4.5 01:08:33 11° SE 01:11:18 21° E 01:14:13 10° NE visible
02 Jun 3.3 02:43:27 14° SSW 02:46:37 50° WNW 02:50:24 10° N visible
03 Jun 4.7 00:52:12 10° SE 00:54:49 18° E 00:57:26 10° NE visible
03 Jun 3.0 02:26:56 15° SSW 02:30:02 61° WNW 02:33:52 10° N visible
03 Jun 5.4 04:05:39 10° WNW 04:06:31 11° NW 04:07:22 10° NW visible
04 Jun 4.9 00:36:07 10° ESE 00:38:21 15° E 00:40:34 10° NE visible
04 Jun 2.8 02:10:23 16° SSW 02:13:27 74° WNW 02:17:19 10° N visible
04 Jun 5.2 03:48:10 10° W 03:49:48 12° NW 03:51:27 10° NNW visible
05 Jun 5.0 00:20:12 10° ESE 00:21:52 13° E 00:23:33 10° NE visible
05 Jun 2.7 01:53:50 16° SSW 01:56:53 89° NW 02:00:44 10° NNE visible
05 Jun 5.2 03:30:59 10° W 03:33:07 14° WNW 03:35:14 10° NNW visible
06 Jun 5.1 00:04:43 10° E 00:05:26 10° E 00:06:09 10° ENE visible
06 Jun 2.7 01:37:16 16° S 01:40:18 76° E 01:44:09 10° NNE visible
06 Jun 5.0 03:13:56 10° W 03:16:26 16° WNW 03:18:55 10° NNW visible
07 Jun 2.9 01:20:41 15° S 01:23:45 62° E 01:27:33 10° NNE visible
07 Jun 4.9 02:56:58 10° WSW 02:59:45 19° WNW 03:02:33 10° NNW visible
08 Jun 3.1 01:04:05 14° S 01:07:12 50° E 01:10:55 10° NNE visible
08 Jun 4.7 02:40:03 10° WSW 02:43:06 22° WNW 02:46:08 10° N visible
